QPF
0.00 0.00 0.00 0.00 0.00 0.00 0.00 0.00 0.00 0.00 0.00 0.00 0.00 0.00 0.00 0.00 0.00 0.00 0.01 0.02 0.01 0.00 0.00 0.00 0.00 0.00 0.00 0.00 0.00 0.00 0.00 0.00 0.00 0.00 0.00 0.00 0.00 0.00 0.00 0.00 0.00 0.00 0.00 0.00 0.00 0.00 0.00 0.01 0.00
0.00 0.00 0.00 0.00 0.00 0.00 0.00 0.00 0.00 0.00 0.00 0.00 0.00 0.00 0.00 0.00 0.00 0.02 0.08 0.08 0.02 0.00 0.00 0.00 0.00 0.00 0.00 0.00 0.00 0.00 0.00 0.00 0.00 0.00 0.00 0.00 0.00 0.00 0.00 0.00 0.00 0.00 0.00 0.00 0.00 0.00 0.00 0.00 0.00
0.00 0.00 0.00 0.00 0.00 0.00 0.00 0.00 0.00 0.00 0.00 0.00 0.00 0.00 0.00 0.00 0.00 0.01 0.06 0.06 0.05 0.00 0.00 0.00 0.00 0.00 0.00 0.00 0.00 0.00 0.00 0.00 0.00 0.00 0.00 0.00 0.00 0.00 0.00 0.00 0.00 0.00 0.00 0.00 0.00 0.00 0.00 0.00 0.00
0.00 0.00 0.00 0.00 0.00 0.00 0.00 0.00 0.00 0.00 0.00 0.00 0.00 0.00 0.00 0.00 0.00 0.00 0.03 0.01 0.00 0.00 0.00 0.00 0.00 0.00 0.00 0.00 0.00 0.00 0.00 0.00 0.00 0.00 0.00 0.00 0.00 0.00 0.00 0.00 0.00 0.00 0.00 0.00 0.00 0.00 0.00 0.00 0.00
0.00 0.00 0.00 0.00 0.00 0.00 0.00 0.00 0.00 0.00 0.00 0.00 0.00 0.00 0.00 0.00 0.00 0.00 0.00 0.00 0.00 0.00 0.00 0.00 0.00 0.00 0.00 0.00 0.00 0.00 0.00 0.00 0.00 0.00 0.00 0.00 0.00 0.00 0.00 0.00 0.00 0.00 0.00 0.00 0.00 0.00 0.00 0.00 0.00
0.00 0.00 0.00 0.00 0.00 0.00 0.00 0.00 0.00 0.00 0.00 0.00 0.00 0.00 0.00 0.00 0.00 0.00 0.00 0.00 0.00 0.00 0.00 0.00 0.00 0.00 0.00 0.00 0.00 0.00 0.00 0.00 0.00 0.00 0.00 0.00 0.00 0.00 0.00 0.00 0.00 0.00 0.00 0.00 0.04 0.03 0.01 0.00 0.00
0.00 0.00 0.00 0.00 0.00 0.00 0.00 0.00 0.00 0.00 0.00 0.00 0.00 0.00 0.00 0.00 0.00 0.00 0.00 0.00 0.00 0.00 0.00 0.00 0.00 0.00 0.00 0.00 0.00 0.00 0.00 0.00 0.00 0.00 0.00 0.00 0.00 0.00 0.00 0.01 0.00 0.00 0.00 0.00 0.02 0.06 0.05 0.02 0.02
0.00 0.00 0.00 0.00 0.00 0.00 0.00 0.00 0.00 0.00 0.00 0.00 0.00 0.00 0.00 0.00 0.00 0.00 0.00 0.00 0.00 0.00 0.00 0.00 0.00 0.00 0.00 0.00 0.00 0.00 0.00 0.00 0.00 0.00 0.00 0.00 0.00 0.00 0.00 0.02 0.03 0.03 0.02 0.04 0.08 0.12 0.07 0.09 0.12
0.00 0.00 0.00 0.00 0.00 0.00 0.00 0.00 0.00 0.00 0.00 0.00 0.00 0.00 0.00 0.00 0.00 0.00 0.00 0.00 0.00 0.00 0.00 0.00 0.00 0.00 0.00 0.00 0.00 0.00 0.00 0.00 0.00 0.00 0.00 0.00 0.00 0.00 0.00 0.00 0.00 0.00 0.00 0.02 0.09 0.09 0.06 0.18 0.23
0.00 0.00 0.00 0.00 0.00 0.00 0.00 0.00 0.00 0.00 0.00 0.00 0.00 0.00 0.00 0.00 0.00 0.00 0.00 0.00 0.00 0.00 0.00 0.00 0.00 0.00 0.00 0.00 0.00 0.00 0.00 0.00 0.00 0.00 0.00 0.00 0.00 0.00 0.01 0.00 0.00 0.00 0.00 0.04 0.10 0.07 0.10 0.14 0.05
0.00 0.00 0.00 0.00 0.00 0.00 0.00 0.00 0.00 0.00 0.00 0.00 0.00 0.00 0.00 0.00 0.00 0.00 0.00 0.00 0.00 0.00 0.00 0.00 0.00 0.00 0.00 0.00 0.00 0.00 0.00 0.00 0.00 0.00 0.00 0.00 0.00 0.00 0.00 0.00 0.00 0.00 0.01 0.01 0.05 0.16 0.16 0.20 0.16
0.00 0.00 0.00 0.00 0.00 0.00 0.00 0.00 0.00 0.00 0.00 0.00 0.00 0.00 0.00 0.00 0.00 0.00 0.00 0.00 0.00 0.00 0.00 0.00 0.00 0.00 0.00 0.00 0.00 0.00 0.00 0.00 0.00 0.00 0.00 0.00 0.00 0.00 0.00 0.00 0.00 0.00 0.00 0.00 0.00 0.01 0.06 0.16 0.14
0.00 0.00 0.00 0.00 0.00 0.00 0.00 0.00 0.00 0.00 0.00 0.00 0.00 0.00 0.00 0.00 0.00 0.00 0.00 0.00 0.00 0.00 0.00 0.00 0.00 0.00 0.00 0.00 0.00 0.00 0.00 0.00 0.00 0.00 0.00 0.00 0.00 0.00 0.00 0.00 0.00 0.00 0.00 0.00 0.00 0.00 0.00 0.01 0.04
0.00 0.00 0.00 0.00 0.00 0.00 0.00 0.00 0.00 0.00 0.00 0.00 0.00 0.00 0.00 0.00 0.00 0.00 0.00 0.00 0.00 0.00 0.00 0.00 0.00 0.00 0.00 0.00 0.00 0.00 0.00 0.00 0.00 0.00 0.00 0.00 0.00 0.00 0.00 0.00 0.00 0.00 0.00 0.00 0.00 0.00 0.00 0.00 0.00
0.00 0.00 0.00 0.00 0.00 0.00 0.00 0.00 0.00 0.00 0.00 0.00 0.00 0.00 0.00 0.00 0.00 0.00 0.00 0.00 0.00 0.00 0.00 0.00 0.00 0.00 0.00 0.00 0.00 0.00 0.00 0.00 0.00 0.00 0.00 0.00 0.00 0.00 0.00 0.00 0.00 0.00 0.00 0.00 0.00 0.00 0.00 0.00 0.00
0.00 0.00 0.00 0.00 0.00 0.00 0.00 0.00 0.00 0.00 0.00 0.00 0.00 0.00 0.00 0.00 0.00 0.00 0.00 0.00 0.00 0.00 0.00 0.00 0.00 0.00 0.00 0.00 0.00 0.00 0.00 0.00 0.00 0.00 0.00 0.00 0.00 0.00 0.00 0.00 0.00 0.00 0.00 0.00 0.00 0.00 0.00 0.00 0.00
0.00 0.00 0.00 0.00 0.00 0.00 0.00 0.00 0.00 0.00 0.00 0.00 0.00 0.00 0.00 0.00 0.00 0.00 0.00 0.00 0.00 0.00 0.00 0.00 0.00 0.00 0.00 0.00 0.00 0.00 0.00 0.00 0.00 0.00 0.00 0.00 0.00 0.00 0.00 0.00 0.00 0.00 0.00 0.00 0.00 0.00 0.00 0.00 0.00
0.00 0.00 0.00 0.00 0.00 0.00 0.00 0.00 0.00 0.00 0.00 0.00 0.00 0.00 0.00 0.00 0.00 0.00 0.00 0.00 0.00 0.00 0.00 0.00 0.00 0.00 0.00 0.00 0.00 0.00 0.00 0.00 0.00 0.00 0.00 0.00 0.00 0.00 0.00 0.00 0.00 0.00 0.00 0.00 0.00 0.00 0.00 0.00 0.00
0.00 0.00 0.00 0.00 0.00 0.00 0.00 0.00 0.00 0.00 0.00 0.00 0.00 0.00 0.00 0.00 0.00 0.00 0.00 0.00 0.00 0.00 0.00 0.00 0.00 0.00 0.00 0.00 0.00 0.00 0.00 0.00 0.00 0.00 0.00 0.00 0.00 0.00 0.00 0.00 0.00 0.00 0.00 0.00 0.00 0.00 0.00 0.00 0.00
0.00 0.00 0.00 0.00 0.00 0.00 0.00 0.00 0.00 0.00 0.00 0.00 0.00 0.00 0.00 0.00 0.00 0.00 0.00 0.00 0.00 0.00 0.00 0.00 0.00 0.00 0.00 0.00 0.00 0.00 0.00 0.00 0.00 0.00 0.00 0.00 0.00 0.00 0.00 0.00 0.00 0.00 0.00 0.00 0.00 0.00 0.00 0.00 0.00
0.00 0.00 0.00 0.00 0.00 0.00 0.00 0.00 0.00 0.00 0.00 0.00 0.00 0.00 0.00 0.00 0.00 0.00 0.00 0.00 0.00 0.00 0.00 0.00 0.00 0.00 0.00 0.00 0.00 0.00 0.00 0.00 0.00 0.00 0.00 0.00 0.00 0.00 0.00 0.00 0.00 0.00 0.00 0.00 0.00 0.00 0.00 0.00 0.00
0.00 0.00 0.00 0.00 0.00 0.00 0.00 0.00 0.00 0.00 0.00 0.00 0.00 0.00 0.00 0.00 0.00 0.00 0.00 0.00 0.00 0.00 0.00 0.00 0.00 0.00 0.00 0.00 0.00 0.00 0.00 0.00 0.00 0.00 0.00 0.00 0.00 0.00 0.00 0.00 0.00 0.00 0.00 0.00 0.00 0.00 0.00 0.00 0.00
0.00 0.00 0.00 0.00 0.00 0.00 0.00 0.00 0.00 0.00 0.00 0.00 0.00 0.00 0.00 0.00 0.00 0.00 0.00 0.00 0.00 0.00 0.00 0.00 0.00 0.00 0.00 0.00 0.00 0.00 0.00 0.00 0.00 0.00 0.00 0.00 0.00 0.00 0.00 0.00 0.00 0.00 0.00 0.00 0.00 0.00 0.00 0.00 0.00
0.00 0.00 0.00 0.00 0.00 0.00 0.00 0.00 0.00 0.00 0.00 0.00 0.00 0.00 0.00 0.00 0.00 0.00 0.00 0.00 0.00 0.00 0.00 0.00 0.00 0.00 0.00 0.00 0.00 0.00 0.00 0.00 0.00 0.00 0.00 0.00 0.00 0.00 0.00 0.00 0.00 0.00 0.00 0.00 0.00 0.00 0.00 0.00 0.00
0.00 0.00 0.00 0.00 0.00 0.00 0.00 0.00 0.00 0.00 0.00 0.00 0.00 0.00 0.00 0.00 0.00 0.00 0.00 0.00 0.00 0.00 0.00 0.00 0.00 0.00 0.00 0.00 0.00 0.00 0.00 0.00 0.00 0.00 0.00 0.00 0.00 0.00 0.00 0.00 0.00 0.00 0.00 0.00 0.00 0.00 0.00 0.00 0.00
0.00 0.00 0.00 0.00 0.00 0.00 0.00 0.00 0.00 0.00 0.00 0.00 0.00 0.00 0.00 0.00 0.00 0.00 0.00 0.00 0.00 0.00 0.00 0.00 0.00 0.00 0.00 0.00 0.00 0.00 0.00 0.00 0.00 0.00 0.00 0.00 0.00 0.00 0.00 0.00 0.00 0.00 0.00 0.00 0.00 0.00 0.00 0.00 0.00
0.00 0.00 0.00 0.00 0.00 0.00 0.00 0.00 0.00 0.00 0.00 0.00 0.00 0.00 0.00 0.00 0.00 0.00 0.00 0.00 0.00 0.00 0.00 0.00 0.00 0.00 0.00 0.00 0.00 0.00 0.00 0.00 0.00 0.00 0.00 0.00 0.00 0.00 0.00 0.00 0.00 0.00 0.00 0.00 0.00 0.00 0.00 0.00 0.00
0.00 0.00 0.00 0.00 0.00 0.00 0.00 0.00 0.00 0.00 0.00 0.00 0.00 0.00 0.00 0.00 0.00 0.00 0.00 0.00 0.00 0.00 0.00 0.00 0.00 0.00 0.00 0.00 0.00 0.00 0.00 0.00 0.00 0.00 0.00 0.00 0.00 0.00 0.00 0.00 0.00 0.00 0.00 0.00 0.00 0.00 0.00 0.00 0.00
0.00 0.00 0.00 0.00 0.00 0.00 0.00 0.00 0.00 0.00 0.00 0.00 0.00 0.00 0.00 0.00 0.00 0.00 0.00 0.00 0.00 0.00 0.00 0.00 0.00 0.00 0.00 0.00 0.00 0.00 0.00 0.00 0.00 0.00 0.00 0.00 0.00 0.00 0.00 0.00 0.00 0.00 0.00 0.00 0.00 0.00 0.00 0.00 0.00
0.00 0.00 0.00 0.00 0.00 0.00 0.00 0.00 0.00 0.00 0.00 0.00 0.00 0.00 0.00 0.00 0.00 0.00 0.00 0.00 0.00 0.00 0.00 0.00 0.00 0.00 0.00 0.00 0.00 0.00 0.00 0.00 0.00 0.00 0.00 0.00 0.00 0.00 0.00 0.00 0.00 0.00 0.00 0.00 0.00 0.00 0.00 0.00 0.00
MSLP
1010.52 1010.07 1010.31 1010.50 1011.70 1012.12 1011.61 1010.36 1009.10 1008.86 1008.93 1008.53 1008.33 1008.60 1009.09 1009.31 1009.66 1010.75 1010.63 1010.63 1010.89 1010.95 1011.25 1011.43 1011.61 1011.74 1011.73 1011.96 1012.05 1012.03 1012.09 1012.21 1012.29 1012.37 1012.46 1012.58 1012.76 1012.95 1013.24 1013.53 1013.78 1013.97 1014.13 1014.14 1014.18 1014.23 1014.42 1014.68 1014.78
1010.40 1010.08 1010.39 1011.11 1012.08 1012.40 1011.29 1009.69 1009.08 1008.37 1008.63 1008.51 1008.52 1008.87 1009.00 1009.71 1009.66 1010.45 1010.86 1010.95 1010.90 1011.12 1011.30 1011.25 1011.63 1011.81 1011.92 1012.05 1012.24 1012.38 1012.49 1012.46 1012.47 1012.55 1012.70 1012.78 1012.94 1013.13 1013.26 1013.50 1013.74 1013.90 1014.13 1014.25 1014.28 1014.30 1014.45 1014.68 1014.78
1010.41 1010.35 1011.01 1012.07 1012.65 1012.19 1010.95 1009.30 1008.92 1008.56 1008.33 1008.15 1008.56 1009.08 1009.41 1010.00 1010.16 1010.82 1010.98 1010.77 1011.17 1011.33 1011.58 1011.69 1011.67 1011.86 1011.99 1012.21 1012.44 1012.46 1012.56 1012.69 1012.75 1012.79 1012.81 1012.97 1013.19 1013.33 1013.47 1013.60 1013.72 1013.83 1013.95 1014.18 1014.32 1014.38 1014.41 1014.50 1014.63
1010.50 1011.05 1012.08 1012.02 1012.28 1011.16 1010.02 1008.88 1008.71 1008.66 1008.66 1008.42 1008.78 1009.65 1009.94 1010.11 1010.03 1010.75 1011.10 1011.14 1011.71 1012.06 1012.18 1012.19 1011.91 1012.21 1012.20 1012.43 1012.31 1012.38 1012.59 1012.63 1012.68 1012.80 1012.99 1013.14 1013.29 1013.41 1013.63 1013.73 1013.78 1013.90 1013.94 1014.05 1014.23 1014.33 1014.57 1014.64 1014.65
1011.18 1012.04 1012.87 1012.76 1011.77 1010.42 1009.21 1008.62 1008.57 1008.55 1008.68 1008.75 1008.78 1010.27 1010.77 1010.92 1010.78 1011.38 1011.82 1012.02 1012.38 1012.78 1012.70 1012.72 1012.78 1012.71 1012.59 1012.62 1012.59 1012.60 1012.52 1012.60 1012.75 1012.86 1013.03 1013.15 1013.29 1013.39 1013.50 1013.68 1013.73 1013.70 1013.80 1013.95 1014.17 1014.36 1014.49 1014.68 1014.80
1012.00 1012.79 1013.50 1013.08 1011.74 1010.22 1008.85 1008.19 1008.42 1008.41 1008.77 1009.07 1009.69 1010.24 1011.57 1011.88 1011.99 1012.81 1012.89 1013.10 1013.09 1013.14 1013.25 1013.14 1013.00 1012.97 1012.97 1012.98 1012.95 1012.91 1012.86 1012.87 1012.85 1012.92 1013.06 1013.19 1013.24 1013.31 1013.45 1013.57 1013.70 1013.75 1013.77 1013.94 1013.95 1014.19 1014.30 1014.49 1014.63
1012.25 1013.05 1013.53 1012.82 1011.59 1010.15 1008.76 1008.07 1008.42 1008.66 1009.06 1009.30 1009.54 1010.78 1012.26 1012.93 1013.27 1013.21 1013.42 1013.57 1013.71 1013.73 1013.64 1013.68 1013.69 1013.58 1013.38 1013.18 1013.21 1013.30 1013.41 1013.42 1013.36 1013.30 1013.24 1013.25 1013.30 1013.32 1013.40 1013.45 1013.52 1013.57 1013.64 1013.69 1013.77 1013.79 1013.88 1014.14 1014.28
1012.12 1012.85 1013.06 1012.36 1011.34 1009.94 1008.86 1008.47 1008.56 1008.84 1009.16 1009.40 1009.77 1010.90 1012.37 1013.42 1013.79 1013.49 1013.76 1014.25 1014.40 1014.42 1014.48 1014.52 1014.31 1014.08 1013.76 1013.66 1013.60 1013.62 1013.64 1013.73 1013.78 1013.77 1013.71 1013.61 1013.59 1013.64 1013.68 1013.78 1013.81 1013.79 1013.62 1013.67 1013.58 1013.37 1013.50 1013.65 1013.95
1011.82 1012.78 1013.05 1011.69 1010.65 1009.67 1009.01 1008.57 1008.82 1009.01 1009.39 1010.02 1010.58 1011.05 1012.01 1013.28 1013.80 1013.51 1014.14 1014.76 1014.97 1015.18 1015.27 1015.18 1015.02 1014.71 1014.39 1014.15 1014.13 1014.01 1014.20 1014.29 1014.32 1014.26 1014.13 1013.80 1013.77 1013.80 1013.75 1014.04 1014.05 1013.98 1013.94 1013.83 1013.66 1013.56 1013.37 1013.33 1013.53
1012.09 1012.90 1012.33 1010.94 1009.95 1009.44 1009.30 1008.89 1008.96 1009.60 1010.21 1011.23 1011.52 1012.29 1013.09 1013.73 1014.08 1013.99 1014.84 1015.56 1015.73 1015.93 1015.91 1015.86 1015.67 1015.52 1015.08 1014.83 1014.81 1014.77 1014.91 1015.01 1015.12 1015.08 1014.83 1014.70 1014.60 1014.37 1014.21 1014.19 1013.98 1014.01 1014.00 1013.80 1013.56 1013.44 1013.28 1013.43 1013.35
1012.04 1012.26 1011.41 1010.44 1009.59 1009.28 1009.14 1009.11 1009.29 1009.78 1010.79 1010.76 1011.74 1012.95 1013.80 1014.41 1014.79 1015.04 1015.76 1016.19 1016.38 1016.58 1016.27 1015.98 1015.86 1015.77 1015.59 1015.53 1015.41 1015.53 1015.88 1015.91 1015.70 1015.55 1015.54 1015.56 1015.31 1015.04 1014.86 1014.58 1014.31 1014.20 1014.19 1014.00 1013.76 1013.62 1013.34 1013.31 1013.29
1011.91 1011.59 1011.21 1010.39 1009.66 1009.28 1009.38 1009.29 1009.57 1010.13 1010.25 1010.71 1011.90 1012.87 1013.88 1014.54 1015.09 1015.64 1016.13 1016.49 1016.57 1016.67 1016.75 1016.37 1016.02 1015.79 1015.79 1015.82 1015.90 1016.05 1016.32 1016.49 1016.45 1016.48 1016.32 1016.17 1015.97 1015.78 1015.52 1015.14 1015.06 1014.82 1014.66 1014.30 1013.98 1013.92 1013.62 1013.36 1012.91
1012.12 1011.62 1011.15 1010.31 1009.89 1009.60 1009.39 1009.64 1009.92 1010.34 1010.75 1011.36 1012.62 1013.54 1014.33 1014.82 1015.35 1015.93 1016.19 1016.54 1016.72 1016.87 1017.05 1016.79 1016.49 1016.41 1016.22 1016.07 1016.43 1016.70 1016.89 1017.10 1016.96 1017.09 1017.04 1016.72 1016.81 1016.60 1016.29 1016.09 1015.71 1015.55 1015.33 1014.98 1014.39 1014.43 1013.93 1013.53 1013.27
1012.21 1011.98 1011.42 1010.58 1010.19 1009.79 1009.78 1009.71 1009.99 1010.66 1011.16 1012.20 1013.01 1013.83 1014.31 1014.49 1015.21 1016.10 1016.71 1016.90 1016.96 1017.12 1017.15 1016.90 1016.59 1016.41 1016.21 1016.61 1016.76 1017.19 1017.45 1017.64 1017.67 1017.75 1017.60 1017.51 1017.37 1017.25 1017.11 1016.84 1016.49 1016.14 1015.90 1015.58 1015.00 1014.96 1014.52 1013.93 1013.64
1012.47 1012.51 1011.57 1010.87 1010.06 1009.95 1009.85 1010.25 1010.08 1010.48 1011.74 1012.67 1013.55 1014.18 1014.74 1015.31 1015.82 1016.26 1016.86 1017.04 1017.05 1017.27 1017.17 1017.08 1016.98 1016.68 1016.69 1017.04 1017.16 1017.47 1017.71 1017.97 1018.22 1018.25 1018.19 1018.07 1017.98 1017.93 1017.82 1017.78 1017.51 1017.17 1016.55 1016.03 1015.50 1015.21 1014.61 1014.14 1013.90
1013.13 1013.07 1012.46 1011.09 1010.55 1009.74 1009.84 1009.87 1009.62 1010.37 1011.48 1012.79 1013.68 1014.60 1015.32 1016.06 1016.43 1016.78 1016.94 1017.05 1017.37 1017.49 1017.74 1017.74 1017.79 1017.53 1017.36 1017.45 1017.71 1018.00 1018.30 1018.53 1018.81 1018.94 1019.02 1018.80 1018.68 1018.63 1018.56 1018.47 1018.37 1017.82 1017.26 1016.96 1016.65 1016.11 1015.38 1014.90 1014.50
1013.92 1013.77 1012.88 1011.74 1010.51 1010.41 1010.54 1010.23 1009.30 1010.24 1011.28 1012.75 1013.92 1014.93 1015.83 1016.55 1017.11 1017.24 1017.23 1017.18 1017.47 1017.61 1017.90 1018.12 1018.25 1018.30 1018.19 1018.19 1018.43 1018.73 1018.97 1019.10 1019.40 1019.40 1019.55 1019.53 1019.33 1019.17 1019.12 1019.11 1018.95 1018.38 1017.90 1017.56 1017.30 1016.85 1016.46 1015.71 1015.13
1013.83 1013.90 1013.16 1012.27 1011.06 1010.73 1010.76 1010.57 1010.07 1010.67 1011.11 1012.04 1013.82 1015.09 1016.01 1016.70 1017.15 1017.44 1017.77 1017.89 1018.03 1018.14 1018.35 1018.32 1018.52 1018.78 1018.67 1018.44 1018.83 1019.31 1019.51 1019.73 1020.01 1020.16 1020.27 1020.10 1019.94 1019.74 1019.43 1019.32 1019.24 1018.94 1018.65 1018.30 1017.94 1017.53 1016.95 1016.44 1015.98
1013.45 1013.41 1013.24 1012.24 1011.40 1011.23 1010.71 1010.70 1010.49 1010.60 1011.41 1012.47 1013.66 1014.76 1015.85 1016.74 1017.19 1017.54 1017.87 1018.20 1018.51 1018.74 1019.02 1019.29 1019.19 1019.32 1019.40 1019.32 1019.28 1019.77 1020.66 1020.82 1020.88 1020.99 1021.09 1020.89 1020.74 1020.43 1020.23 1019.98 1019.62 1019.21 1019.03 1018.88 1018.43 1018.02 1017.55 1016.91 1016.43
1013.75 1013.57 1013.17 1012.35 1011.70 1011.70 1011.32 1011.26 1010.54 1010.59 1010.77 1011.30 1012.85 1014.34 1015.23 1016.32 1016.99 1017.60 1018.04 1018.50 1018.81 1019.44 1019.69 1019.92 1020.23 1020.15 1020.04 1020.05 1020.05 1020.37 1021.22 1021.77 1021.87 1021.72 1021.60 1021.65 1021.44 1021.01 1020.72 1020.69 1020.40 1019.92 1019.49 1019.10 1018.76 1018.43 1018.24 1017.83 1017.50
1013.14 1013.21 1013.03 1012.66 1012.10 1011.96 1012.02 1011.42 1011.03 1010.26 1010.18 1010.42 1011.57 1012.32 1014.14 1015.06 1016.26 1017.34 1018.30 1018.97 1019.52 1020.11 1020.37 1020.60 1021.04 1020.91 1020.74 1020.55 1020.53 1020.73 1021.35 1021.98 1022.34 1022.61 1022.44 1022.29 1022.26 1022.01 1021.54 1021.17 1020.90 1020.63 1020.10 1019.85 1019.40 1019.17 1018.86 1018.59 1018.26
1012.31 1012.11 1012.34 1012.66 1012.95 1013.08 1012.60 1011.47 1011.20 1010.48 1010.15 1010.30 1011.26 1012.59 1013.76 1014.91 1016.21 1017.16 1018.30 1019.33 1019.95 1020.51 1020.56 1020.99 1021.51 1021.59 1021.72 1021.37 1021.50 1021.48 1022.25 1022.98 1023.62 1023.56 1023.43 1023.08 1022.79 1022.57 1022.32 1022.04 1021.58 1021.23 1020.74 1020.67 1020.17 1019.74 1019.44 1019.08 1018.79
1011.46 1011.62 1012.01 1012.71 1013.26 1013.47 1013.29 1013.34 1010.97 1010.91 1011.11 1011.19 1011.38 1012.42 1013.42 1014.35 1015.53 1017.00 1018.29 1019.28 1020.16 1020.63 1021.05 1021.25 1021.60 1022.14 1022.10 1022.10 1022.31 1022.26 1023.15 1023.45 1023.81 1023.92 1023.98 1023.66 1023.62 1023.37 1023.02 1022.62 1022.45 1022.08 1021.69 1021.29 1020.86 1020.31 1020.11 1019.73 1019.48
1011.04 1011.76 1012.58 1013.60 1014.15 1013.90 1013.38 1013.41 1010.43 1011.33 1011.16 1011.52 1011.84 1012.43 1013.42 1014.71 1016.02 1017.37 1018.57 1019.45 1020.47 1021.06 1021.43 1021.57 1021.96 1022.46 1022.77 1023.14 1023.22 1022.99 1023.63 1024.06 1024.36 1024.46 1024.47 1024.11 1024.21 1024.02 1023.77 1023.52 1022.95 1022.83 1022.49 1022.17 1021.45 1020.89 1020.84 1020.44 1020.03
1011.15 1012.00 1013.44 1014.45 1014.92 1013.67 1013.05 1013.35 1011.32 1011.37 1011.49 1011.59 1011.60 1013.38 1014.50 1015.54 1016.57 1017.71 1018.76 1019.59 1020.37 1020.96 1021.12 1021.83 1022.25 1022.77 1023.08 1023.53 1023.44 1023.53 1023.69 1024.01 1024.53 1024.49 1024.52 1024.57 1024.61 1024.26 1024.11 1024.45 1023.80 1023.26 1022.95 1022.81 1022.23 1021.75 1021.45 1021.24 1020.99
1010.99 1011.55 1012.42 1013.42 1014.36 1013.94 1013.72 1012.98 1012.10 1012.20 1011.99 1011.70 1011.82 1013.48 1014.88 1016.25 1016.94 1017.89 1018.92 1019.47 1019.89 1020.53 1021.49 1022.17 1022.47 1023.00 1023.35 1023.67 1023.62 1023.73 1024.02 1024.04 1024.51 1024.58 1024.54 1024.51 1024.78 1024.59 1024.41 1024.72 1024.45 1023.95 1023.56 1023.29 1023.12 1022.71 1022.20 1022.11 1021.87
1010.70 1010.87 1011.34 1012.54 1013.58 1014.05 1013.54 1013.04 1012.59 1012.54 1012.55 1012.52 1013.18 1014.29 1015.54 1016.59 1017.20 1017.61 1017.84 1018.36 1018.87 1018.94 1019.82 1019.82 1021.49 1021.92 1022.55 1023.05 1023.70 1024.07 1024.26 1024.59 1024.58 1024.69 1024.68 1024.97 1024.54 1024.63 1024.89 1025.04 1024.71 1024.76 1024.39 1023.87 1023.65 1023.40 1023.28 1022.83 1022.51
1009.67 1010.55 1012.16 1013.17 1013.85 1013.99 1013.26 1013.00 1012.32 1012.78 1012.94 1013.07 1013.54 1014.00 1014.93 1015.99 1016.55 1016.60 1017.43 1018.03 1018.76 1019.61 1020.44 1020.89 1021.03 1021.37 1021.90 1022.38 1023.32 1024.00 1024.45 1024.52 1024.74 1024.81 1024.99 1025.47 1025.14 1025.30 1025.04 1025.35 1025.32 1025.33 1024.70 1024.41 1023.98 1023.82 1023.73 1023.46 1022.95
1010.48 1010.96 1011.82 1012.57 1013.39 1013.45 1013.71 1012.86 1011.85 1012.09 1012.39 1012.70 1013.25 1013.45 1013.52 1014.34 1015.06 1015.99 1016.90 1017.76 1018.42 1019.36 1020.37 1020.96 1021.48 1021.94 1022.28 1022.52 1023.25 1023.74 1024.18 1024.58 1024.52 1025.15 1025.52 1025.63 1025.54 1025.38 1025.27 1025.82 1026.03 1025.41 1025.29 1024.71 1024.30 1024.36 1023.98 1023.85 1023.43
1011.44 1011.88 1012.30 1012.83 1014.10 1014.32 1014.08 1013.15 1012.26 1011.72 1011.68 1012.09 1012.78 1013.12 1013.55 1013.86 1014.32 1015.43 1016.43 1017.54 1018.46 1019.44 1020.11 1020.87 1021.15 1021.61 1022.16 1022.73 1023.57 1024.18 1024.15 1024.60 1025.08 1025.79 1025.64 1025.94 1025.92 1025.83 1025.63 1025.86 1026.33 1026.00 1025.25 1025.47 1025.17 1024.84 1024.53 1024.16 1023.90
Thickness
5790 5793 5789 5778 5746 5730 5727 5750 5767 5762 5760 5775 5780 5772 5764 5768 5756 5731 5764 5767 5767 5767 5763 5759 5757 5756 5757 5754 5753 5752 5750 5748 5746 5745 5743 5741 5738 5735 5731 5728 5725 5722 5719 5719 5718 5717 5714 5711 5711
5788 5790 5781 5756 5725 5709 5723 5750 5758 5763 5768 5776 5777 5773 5767 5755 5769 5757 5756 5763 5765 5763 5761 5759 5756 5754 5753 5751 5749 5746 5744 5744 5744 5742 5739 5737 5734 5731 5728 5725 5722 5720 5716 5714 5714 5713 5711 5708 5707
5784 5783 5761 5732 5707 5712 5722 5754 5759 5767 5772 5773 5767 5770 5766 5755 5762 5755 5759 5762 5759 5758 5755 5754 5753 5751 5750 5747 5744 5744 5742 5740 5738 5737 5735 5733 5730 5727 5724 5721 5720 5718 5716 5712 5710 5709 5709 5707 5706
5774 5765 5749 5723 5724 5734 5742 5759 5762 5758 5763 5769 5763 5748 5760 5764 5763 5758 5757 5755 5750 5747 5745 5745 5747 5745 5745 5743 5744 5743 5739 5738 5736 5733 5731 5728 5726 5723 5720 5718 5716 5714 5713 5711 5709 5707 5704 5703 5702
5762 5745 5716 5714 5720 5736 5751 5759 5759 5756 5752 5755 5759 5739 5739 5751 5760 5754 5748 5745 5741 5738 5738 5738 5738 5738 5738 5737 5736 5736 5736 5734 5732 5730 5727 5725 5722 5720 5718 5715 5714 5713 5711 5709 5706 5703 5701 5699 5697
5740 5732 5702 5700 5715 5735 5749 5760 5758 5754 5752 5750 5744 5741 5735 5743 5742 5736 5735 5731 5730 5731 5730 5731 5732 5731 5730 5730 5729 5729 5729 5728 5727 5726 5723 5720 5719 5717 5715 5713 5710 5709 5708 5706 5705 5701 5699 5697 5694
5731 5716 5703 5706 5710 5725 5747 5760 5747 5745 5742 5745 5751 5733 5729 5727 5729 5730 5727 5724 5723 5722 5722 5722 5722 5721 5722 5723 5722 5722 5720 5719 5720 5720 5718 5717 5715 5714 5711 5708 5706 5705 5705 5704 5702 5701 5699 5695 5692
5725 5716 5709 5706 5705 5717 5743 5749 5748 5746 5740 5749 5748 5727 5719 5720 5720 5723 5720 5714 5712 5713 5712 5711 5712 5713 5715 5715 5715 5714 5713 5713 5712 5711 5710 5710 5709 5708 5706 5702 5700 5699 5699 5698 5698 5699 5698 5695 5690
5731 5699 5689 5709 5716 5727 5739 5740 5744 5746 5739 5735 5734 5733 5728 5720 5717 5720 5714 5707 5705 5703 5701 5701 5702 5704 5706 5706 5705 5704 5703 5702 5702 5702 5703 5704 5703 5701 5701 5698 5696 5694 5693 5692 5693 5693 5693 5691 5688
5709 5684 5693 5717 5730 5731 5730 5734 5730 5727 5723 5716 5719 5721 5717 5711 5708 5709 5704 5698 5697 5694 5693 5691 5692 5691 5694 5694 5694 5693 5692 5691 5690 5690 5691 5692 5692 5692 5692 5691 5691 5690 5689 5688 5687 5687 5687 5684 5683
5709 5693 5706 5720 5730 5732 5728 5731 5730 5719 5711 5720 5712 5708 5705 5700 5696 5694 5690 5689 5688 5686 5688 5689 5689 5687 5686 5685 5684 5681 5678 5677 5679 5681 5680 5679 5680 5680 5680 5681 5681 5682 5681 5681 5680 5679 5680 5678 5676
5701 5707 5708 5718 5725 5724 5720 5726 5722 5719 5720 5724 5717 5711 5703 5697 5693 5686 5681 5679 5678 5677 5676 5680 5682 5683 5681 5679 5677 5674 5669 5667 5665 5663 5664 5664 5665 5665 5666 5667 5666 5667 5668 5668 5671 5669 5669 5669 5672
5694 5701 5705 5713 5716 5718 5719 5713 5711 5712 5712 5713 5706 5702 5696 5693 5688 5682 5679 5674 5670 5667 5665 5666 5669 5670 5670 5670 5665 5660 5657 5653 5652 5651 5648 5649 5646 5648 5650 5651 5652 5650 5650 5652 5656 5655 5657 5658 5659
5694 5691 5695 5704 5708 5712 5708 5708 5711 5707 5705 5699 5698 5691 5689 5691 5686 5677 5672 5669 5666 5663 5660 5660 5661 5662 5661 5656 5653 5647 5643 5640 5637 5634 5634 5633 5631 5631 5631 5632 5635 5638 5637 5637 5640 5640 5643 5646 5647
5687 5679 5686 5693 5701 5702 5705 5694 5702 5701 5696 5691 5687 5685 5682 5678 5674 5670 5663 5660 5659 5656 5655 5652 5651 5652 5650 5645 5641 5636 5632 5627 5623 5621 5619 5618 5617 5616 5615 5615 5617 5619 5623 5625 5628 5627 5631 5634 5635
5672 5671 5663 5687 5688 5701 5700 5687 5704 5700 5696 5685 5680 5677 5674 5668 5664 5658 5655 5652 5648 5646 5642 5638 5637 5638 5638 5635 5629 5623 5618 5613 5609 5606 5603 5603 5602 5600 5599 5599 5598 5602 5606 5609 5610 5612 5616 5617 5619
5653 5642 5654 5666 5691 5688 5684 5680 5705 5694 5694 5681 5673 5668 5663 5657 5651 5648 5647 5645 5641 5638 5632 5627 5623 5622 5621 5619 5615 5609 5604 5600 5595 5592 5588 5586 5586 5586 5584 5583 5583 5587 5590 5592 5594 5597 5599 5602 5604
5640 5638 5646 5656 5679 5678 5675 5672 5686 5687 5688 5684 5666 5658 5655 5648 5642 5638 5634 5630 5626 5624 5620 5616 5611 5608 5608 5606 5598 5592 5589 5584 5579 5575 5572 5571 5570 5570 5570 5570 5568 5569 5571 5575 5577 5578 5582 5587 5588
5652 5648 5646 5655 5671 5670 5670 5665 5672 5679 5672 5668 5661 5658 5649 5640 5634 5629 5624 5617 5611 5607 5601 5596 5593 5589 5587 5586 5584 5575 5565 5562 5559 5554 5552 5551 5550 5550 5550 5551 5553 5554 5555 5555 5559 5561 5564 5568 5572
5637 5633 5632 5648 5660 5657 5655 5654 5665 5670 5673 5668 5658 5650 5644 5632 5628 5622 5613 5606 5600 5590 5585 5579 5574 5571 5570 5566 5563 5557 5548 5541 5538 5537 5534 5531 5531 5533 5532 5531 5532 5535 5537 5539 5541 5543 5544 5547 5549
5635 5628 5630 5633 5645 5647 5643 5636 5648 5662 5666 5671 5661 5658 5644 5635 5624 5614 5602 5591 5581 5574 5569 5564 5556 5553 5552 5551 5547 5542 5534 5526 5521 5517 5514 5512 5510 5510 5512 5514 5515 5516 5519 5519 5521 5521 5524 5526 5526
5625 5639 5636 5630 5620 5607 5632 5620 5635 5649 5658 5660 5647 5638 5633 5624 5615 5604 5589 5576 5568 5560 5557 5549 5541 5536 5531 5530 5526 5523 5514 5507 5500 5498 5495 5493 5493 5493 5493 5493 5496 5497 5500 5499 5502 5504 5505 5507 5507
5628 5637 5627 5622 5610 5607 5607 5598 5631 5640 5634 5637 5636 5627 5625 5619 5608 5592 5577 5565 5555 5547 5540 5535 5529 5520 5517 5514 5510 5508 5498 5492 5488 5484 5480 5480 5476 5476 5476 5477 5477 5479 5480 5482 5484 5487 5486 5489 5490
5631 5618 5605 5595 5588 5582 5593 5592 5631 5619 5624 5626 5623 5620 5616 5605 5593 5577 5564 5553 5538 5530 5525 5520 5514 5507 5504 5498 5494 5492 5483 5477 5473 5469 5467 5468 5463 5461 5460 5459 5463 5462 5463 5463 5466 5470 5469 5469 5471
5611 5600 5573 5566 5560 5584 5601 5582 5617 5615 5612 5618 5620 5600 5591 5583 5569 5556 5545 5536 5526 5519 5515 5508 5504 5497 5491 5484 5482 5478 5473 5467 5461 5459 5457 5455 5451 5451 5449 5442 5445 5447 5447 5445 5447 5448 5450 5450 5449
5596 5590 5567 5560 5563 5580 5579 5567 5588 5594 5600 5601 5603 5589 5574 5559 5553 5543 5533 5524 5518 5510 5501 5495 5490 5482 5476 5471 5469 5466 5461 5457 5451 5447 5446 5444 5439 5438 5436 5430 5430 5431 5431 5430 5428 5429 5430 5429 5429
5589 5580 5597 5572 5561 5552 5561 5569 5579 5582 5581 5579 5573 5562 5551 5543 5538 5534 5529 5524 5517 5514 5506 5502 5485 5477 5471 5463 5456 5452 5447 5442 5440 5437 5436 5430 5431 5426 5422 5418 5418 5413 5413 5415 5413 5411 5409 5410 5410
5589 5587 5557 5540 5545 5544 5553 5558 5556 5565 5562 5559 5553 5550 5546 5539 5534 5534 5527 5517 5509 5498 5488 5481 5478 5474 5466 5459 5448 5441 5435 5433 5428 5425 5422 5416 5417 5411 5412 5405 5401 5397 5401 5400 5401 5397 5394 5394 5397
5570 5566 5560 5555 5540 5546 5539 5543 5559 5552 5552 5549 5548 5548 5548 5544 5539 5529 5518 5511 5501 5489 5476 5467 5462 5458 5452 5447 5438 5432 5427 5421 5418 5411 5407 5404 5402 5401 5399 5389 5383 5388 5385 5387 5387 5381 5382 5381 5383
5548 5547 5545 5523 5534 5520 5518 5523 5550 5551 5549 5543 5539 5539 5540 5538 5531 5520 5510 5498 5488 5476 5467 5457 5453 5449 5443 5435 5425 5418 5417 5410 5405 5397 5397 5391 5388 5387 5385 5378 5370 5370 5374 5367 5368 5367 5366 5368 5369